[[{"header":{"parameterUnit":"m.s-1","parameterCategory":1,"la1":30.2991,"la2":30.254,"lo1":-89.0895,"lo2":-89.0444,"dy":0.0017,"dx":0.0017,"nx":28,"ny":28,"refTime":"2024-10-14T09:00:00:Z","depth":0,"parameterNumber":2,"parameterNumberName":"U-component_of_WINDS"},"data":[0,0,0,0,0,0,0,0,0,0,0,0,0,0,0,0,0,0,0,0,0,0,0,0,0,0,0,0,0,0,0,0,0,0,0,0,0,0,0,0,0,0,0,0,0,0,0,0,0,0,0,0,0,0,0,0,0,0,-4.6975,-4.6975,0,-4.7039,-4.704,-4.7041,-4.6925,-4.6921,-4.6917,-4.6913,-4.6979,-4.6984,-4.6989,0,0,0,0,0,0,0,0,0,0,0,0,0,-4.6748,-4.6753,-4.6974,-4.6975,-4.6976,-4.7039,-4.704,-4.7041,-4.6925,-4.6921,-4.6916,-4.6912,-4.6977,-4.6984,-4.699,0,0,0,0,0,0,0,0,0,0,0,0,0,-4.6833,-4.6754,-4.6974,-4.6926,-4.6922,-4.7039,-4.704,-4.7041,-4.6926,-4.6921,-4.6915,-4.6909,-4.6975,-4.6983,-4.6991,-4.7157,0,0,-4.7015,-4.7019,0,0,0,0,0,0,0,0,-4.6828,-4.6842,-4.6932,-4.693,-4.6926,-4.6968,-4.6984,-4.708,-4.6928,-4.6925,-4.6913,-4.6906,-4.698,-4.6987,-4.7012,-4.716,-4.7163,-4.7016,-4.7021,-4.7025,-4.7027,0,0,0,0,0,0,0,-4.6823,-4.6838,-4.7,-4.6934,-4.693,-4.69,-4.6906,-4.7002,-4.6984,-4.6925,-4.6916,-4.6926,-4.6977,-4.7005,-4.7013,-4.7164,-4.7016,-4.7023,-4.7028,-4.7031,-4.7451,-4.7457,0,0,0,0,0,0,-4.6823,-4.6834,-4.6998,-4.7002,-4.6862,-4.6909,-4.6915,-4.696,-4.6983,-4.6981,-4.6931,-4.692,-4.6994,-4.7004,-4.7015,-4.7211,-4.7024,-4.7032,-4.7037,-4.7445,-4.7452,-4.7459,0,0,0,0,0,0,-4.6819,-4.6839,-4.6995,-4.6916,-4.6933,-4.6919,-4.6971,-4.6965,-4.6992,-4.6988,-4.6984,-4.6963,-4.699,-4.7003,-4.7123,-4.7212,-4.7036,-4.7043,-4.7437,-4.7447,-4.7456,-4.7605,0,0,0,0,0,0,-4.6813,-4.6838,-4.6902,-4.6918,-4.6938,-4.7103,-4.6976,-4.697,-4.7007,-4.6993,-4.7016,-4.7014,-4.6986,-4.7111,-4.7131,-4.7219,-4.7049,-4.7429,-4.7441,-4.7453,-4.7592,-4.7618,-4.7641,0,0,0,0,0,-4.6805,-4.6941,-4.6906,-4.6926,-4.7018,-4.7109,-4.712,-4.7085,-4.7014,-4.7078,-4.7074,-4.7014,-4.7198,-4.7124,-4.7145,-4.7238,-4.7423,-4.7438,-4.7452,-4.7581,-4.7613,-4.764,0,0,0,0,0,0,-4.6936,-4.6943,-4.6903,-4.7049,-4.7079,-4.7089,-4.7168,-4.712,-4.7171,-4.7157,-4.711,-4.7116,-4.7245,-4.7253,-4.717,-4.7399,-4.7299,-4.7318,-4.739,-4.742,-4.7444,-4.744,-4.7056,0,0,0,0,0,-4.6982,-4.7056,-4.7057,-4.7185,-4.7203,-4.7183,-4.7221,-4.7192,-4.7221,-4.7233,-4.7238,-4.7269,-4.7333,-4.7377,-4.7436,-4.7592,-4.7595,-4.7666,-4.769,-4.771,-4.7728,-4.781,-4.7841,-4.7506,-4.7505,-4.7505,0,0,-4.7077,-4.709,-4.714,-4.7212,-4.7232,-4.7309,-4.7195,-4.7281,-4.7338,-4.7246,-4.7359,-4.7364,-4.7394,-4.7533,-4.7594,-4.7543,-4.782,-4.7728,-4.7744,-4.7751,-4.7828,-4.7859,-4.7888,-4.7515,-4.7513,-4.7512,0,0,-4.7291,-4.7308,-4.7417,-4.7439,-4.747,-4.7456,-4.7482,-4.7499,-4.7499,-4.7612,-4.7544,-4.761,-4.7722,-4.7747,-4.7774,-4.7995,-4.7941,-4.8015,-4.8143,-4.8224,-4.8251,-4.8274,-4.8353,-4.8381,-4.8032,-4.8033,-4.8033,0,-4.7406,-4.752,-4.7479,-4.757,-4.7603,-4.7523,-4.7633,-4.7656,-4.7705,-4.773,-4.7672,-4.7811,-4.7826,-4.7968,-4.8022,-4.8047,-4.8075,-4.8013,-4.825,-4.8273,-4.8294,-4.8369,-4.8398,-4.8042,-4.8041,-4.804,-4.8039,0,-4.7659,-4.7739,-4.7823,-4.7873,-4.7915,-4.8015,-4.7988,-4.8036,-4.8002,-4.7994,-4.8109,-4.8124,-4.8184,-4.8215,-4.8183,-4.8353,-4.8321,-4.8258,-4.8156,-4.8336,-4.8405,-4.8433,-4.8054,-4.8051,-4.8049,-4.8046,0,0,-4.7959,-4.7984,-4.8015,-4.8037,-4.8065,-4.8125,-4.822,-4.828,-4.8322,-4.8357,-4.8436,-4.8532,-4.8473,-4.8504,-4.8474,-4.8544,-4.8718,-4.8472,-4.8472,-4.8518,-4.8906,-4.8954,-4.8988,-4.8682,-4.8687,-4.8691,-4.8904,0,-4.8172,-4.8337,-4.8302,-4.8464,-4.8537,-4.8461,-4.8544,-4.8569,-4.8564,-4.8624,-4.8616,-4.8686,-4.8603,-4.8621,-4.8688,-4.8683,-4.8796,-4.8667,-4.8754,-4.8758,-4.875,-4.9024,-4.9076,-4.9276,-4.893,-4.8935,-4.8938,0,-4.8442,-4.8489,-4.8658,-4.8674,-4.8703,-4.8778,-4.8829,-4.8887,-4.8914,-4.8905,-4.8939,-4.8894,-4.8987,-4.8884,-4.9011,-4.8925,-4.8958,-4.8961,-4.8967,-4.8975,-4.886,-4.904,-4.9339,-4.9369,-4.8981,-4.8977,-4.8974,0,-4.8645,-4.8749,-4.8864,-4.8884,-4.8905,-4.896,-4.8971,-4.8992,-4.9029,-4.9073,-4.9096,-4.9151,-4.9181,-4.9223,-4.9194,-4.9121,-4.9326,-4.922,-4.9321,-4.9322,-4.9369,-4.9367,-4.9678,-4.9389,-4.9389,-4.9388,-4.9388,0,-4.8887,-4.8994,-4.8955,-4.9026,-4.9143,-4.9101,-4.9217,-4.9219,-4.9238,-4.9307,-4.9244,-4.931,-4.9266,-4.9328,-4.9306,-4.9415,-4.9429,-4.9423,-4.9416,-4.943,-4.9431,-4.9452,-4.9437,-4.9396,-4.9394,-4.9393,-4.9391,0,-4.9133,-4.9112,-4.9232,-4.9241,-4.9246,-4.9332,-4.9339,-4.9404,-4.9393,-4.9481,-4.9499,-4.9481,-4.9551,-4.9525,-4.9599,-4.9584,-4.9723,-4.9697,-4.9715,-4.9709,-4.9811,-4.9802,-5.0148,-5.0191,-4.9874,-4.9877,-4.9879,0,-4.929,-4.937,-4.9388,-4.943,-4.9445,-4.9513,-4.9551,-4.9512,-4.9553,-4.9589,-4.965,-4.9714,-4.9763,-4.9878,-4.9871,-4.9927,-4.9902,-5.002,-4.9911,-4.9921,-4.9905,-4.9901,-4.9908,-5.0042,-5.0046,-5.0049,-5.0051,0,-4.957,-4.9555,-4.9612,-4.9666,-4.9712,-4.9752,-4.9787,-4.9824,-4.9786,-4.9836,-4.9907,-4.9945,-5.002,-5.0084,-5.0134,-5.0144,-5.0092,-5.0085,-5.0111,-5.0127,-5.0134,-5.0131,-4.9775,-5.0078,-5.0075,-5.0073,-5.0072,-5.0071,-4.9776,-4.9844,-4.9867,-4.9932,-4.9953,-4.9987,-5.0048,-5.0044,-5.0102,-5.0161,-5.0134,-5.0215,-5.0238,-5.0299,-5.0316,-5.0379,-5.0333,-5.0372,-5.0381,-5.0392,-5.0405,-5.0123,-5.0388,-5.0387,-5.0386,-5.0385,-5.0385,0,-5.0053,-5.0063,-5.0124,-5.0174,-5.0225,-5.0171,-5.0205,-5.0252,-5.0324,-5.035,-5.04,-5.048,-5.0542,-5.0539,-5.0596,-5.0646,-5.0623,-5.0662,-5.0659,-5.0662,-5.0443,-5.0414,-5.068,-5.068,-5.068,-5.068,-5.0679,-5.0679,-5.0203,-5.0315,-5.0302,-5.0423,-5.0432,-5.0512,-5.0536,-5.0566,-5.0586,-5.0679,-5.073,-5.0728,-5.0742,-5.0799,-5.0852,-5.085,-5.0874,-5.0922,-5.0911,-5.0706,-5.0677,-5.0649,-5.0623,-5.0927,-5.0928,-5.1124,-5.1126,-5.1128]},{"header":{"parameterUnit":"m.s-1","parameterCategory":1,"la1":30.2991,"la2":30.254,"lo1":-89.0895,"lo2":-89.0444,"dy":0.0017,"dx":0.0017,"nx":28,"ny":28,"refTime":"2024-10-14T09:00:00:Z","depth":0,"parameterNumber":3,"parameterNumberName":"V-component_of_WINDS"},"data":[0,0,0,0,0,0,0,0,0,0,0,0,0,0,0,0,0,0,0,0,0,0,0,0,0,0,0,0,0,0,0,0,0,0,0,0,0,0,0,0,0,0,0,0,0,0,0,0,0,0,0,0,0,0,0,0,0,0,-8.4804,-8.4805,0,-8.4879,-8.488,-8.4881,-8.4752,-8.4748,-8.4744,-8.474,-8.481,-8.4816,-8.4822,0,0,0,0,0,0,0,0,0,0,0,0,0,-8.4545,-8.455,-8.4804,-8.4805,-8.4806,-8.4879,-8.488,-8.4881,-8.4753,-8.4748,-8.4743,-8.4738,-8.4808,-8.4815,-8.4822,0,0,0,0,0,0,0,0,0,0,0,0,0,-8.4642,-8.4552,-8.4804,-8.4752,-8.4748,-8.4879,-8.488,-8.4881,-8.4754,-8.4748,-8.4741,-8.4735,-8.4806,-8.4815,-8.4823,-8.5007,0,0,-8.485,-8.4854,0,0,0,0,0,0,0,0,-8.4637,-8.4652,-8.4758,-8.4755,-8.4751,-8.48,-8.4814,-8.4923,-8.4756,-8.4752,-8.474,-8.4732,-8.4812,-8.482,-8.4848,-8.5011,-8.5014,-8.4851,-8.4856,-8.486,-8.4863,0,0,0,0,0,0,0,-8.463,-8.4648,-8.4833,-8.476,-8.4756,-8.4722,-8.4729,-8.4834,-8.4817,-8.4751,-8.4742,-8.4753,-8.4808,-8.4839,-8.4848,-8.5015,-8.4851,-8.4859,-8.4864,-8.4868,-8.533,-8.5337,0,0,0,0,0,0,-8.4631,-8.4643,-8.4831,-8.4836,-8.4677,-8.4732,-8.4739,-8.4791,-8.4815,-8.4813,-8.4759,-8.4747,-8.4827,-8.4838,-8.485,-8.5066,-8.486,-8.4868,-8.4874,-8.5324,-8.5332,-8.534,0,0,0,0,0,0,-8.4626,-8.4649,-8.4828,-8.4737,-8.4757,-8.4743,-8.4802,-8.4796,-8.4826,-8.4821,-8.4816,-8.4794,-8.4823,-8.4838,-8.4969,-8.5067,-8.4872,-8.488,-8.5315,-8.5326,-8.5336,-8.5501,0,0,0,0,0,0,-8.4619,-8.4648,-8.4719,-8.474,-8.4763,-8.4949,-8.4808,-8.4802,-8.4843,-8.4828,-8.4853,-8.4851,-8.4819,-8.4957,-8.4978,-8.5076,-8.4887,-8.5306,-8.532,-8.5332,-8.5487,-8.5516,-8.5541,0,0,0,0,0,-8.461,-8.4762,-8.4724,-8.4747,-8.4852,-8.4954,-8.4967,-8.4929,-8.4851,-8.4922,-8.4918,-8.485,-8.5053,-8.4971,-8.4994,-8.5096,-8.53,-8.5316,-8.5331,-8.5474,-8.551,-8.554,0,0,0,0,0,0,-8.4751,-8.4764,-8.4721,-8.4885,-8.492,-8.4933,-8.502,-8.4968,-8.5025,-8.5008,-8.4957,-8.4963,-8.5105,-8.5113,-8.5022,-8.5274,-8.5163,-8.5184,-8.5264,-8.5298,-8.5324,-8.5319,-8.4895,0,0,0,0,0,-8.4802,-8.4886,-8.4891,-8.5034,-8.5055,-8.5035,-8.5078,-8.5046,-8.5079,-8.5093,-8.5098,-8.5132,-8.5203,-8.5251,-8.5316,-8.5487,-8.549,-8.5568,-8.5595,-8.5617,-8.5636,-8.5726,-8.576,-8.5391,-8.5391,-8.5391,0,0,-8.4906,-8.4923,-8.4979,-8.5063,-8.5087,-8.5173,-8.5048,-8.5145,-8.5207,-8.5107,-8.5232,-8.5237,-8.527,-8.5423,-8.549,-8.5434,-8.5739,-8.5638,-8.5655,-8.5662,-8.5745,-8.578,-8.5812,-8.5402,-8.54,-8.5398,0,0,-8.514,-8.5163,-8.5284,-8.531,-8.5348,-8.5334,-8.5363,-8.5385,-8.5385,-8.551,-8.5436,-8.5508,-8.5632,-8.5659,-8.5689,-8.5933,-8.5872,-8.5956,-8.6096,-8.6184,-8.6214,-8.6239,-8.6325,-8.6356,-8.5974,-8.5975,-8.5975,0,-8.5264,-8.5394,-8.5352,-8.5455,-8.5493,-8.5408,-8.5529,-8.5556,-8.5612,-8.564,-8.5577,-8.573,-8.5747,-8.5903,-8.5963,-8.599,-8.6021,-8.5952,-8.6213,-8.6238,-8.6261,-8.6343,-8.6375,-8.5985,-8.5983,-8.5982,-8.5981,0,-8.5544,-8.5634,-8.5728,-8.5787,-8.5835,-8.5947,-8.592,-8.5974,-8.5938,-8.593,-8.6057,-8.6074,-8.6141,-8.6175,-8.614,-8.6327,-8.6291,-8.6222,-8.6109,-8.6307,-8.6382,-8.6413,-8.5999,-8.5995,-8.5992,-8.599,0,0,-8.5868,-8.5904,-8.5938,-8.5964,-8.5999,-8.6067,-8.6173,-8.6241,-8.6287,-8.6329,-8.6415,-8.6522,-8.6458,-8.6492,-8.6459,-8.6537,-8.6727,-8.6457,-8.6457,-8.6506,-8.6933,-8.6984,-8.7021,-8.6688,-8.6693,-8.6698,-8.6929,0,-8.61,-8.6287,-8.6252,-8.6433,-8.6515,-8.6435,-8.6527,-8.6558,-8.6553,-8.662,-8.6613,-8.669,-8.66,-8.662,-8.6693,-8.6689,-8.6812,-8.6672,-8.6765,-8.6769,-8.6759,-8.706,-8.7115,-8.7333,-8.6959,-8.6964,-8.6967,0,-8.6396,-8.6451,-8.664,-8.6662,-8.6695,-8.6779,-8.6837,-8.6903,-8.6935,-8.6926,-8.6965,-8.6917,-8.702,-8.6907,-8.7047,-8.6953,-8.6989,-8.6992,-8.7,-8.7006,-8.688,-8.7074,-8.7401,-8.7434,-8.7013,-8.701,-8.7006,0,-8.6612,-8.6733,-8.6862,-8.6886,-8.6915,-8.6976,-8.699,-8.7016,-8.7058,-8.7108,-8.7135,-8.7196,-8.7229,-8.7277,-8.7246,-8.7166,-8.7391,-8.7275,-8.7385,-8.7386,-8.7435,-8.7432,-8.7772,-8.7461,-8.746,-8.746,-8.7459,0,-8.6874,-8.6993,-8.6959,-8.7039,-8.7168,-8.7127,-8.7256,-8.726,-8.7284,-8.7361,-8.7295,-8.7367,-8.7323,-8.7391,-8.7367,-8.7487,-8.7502,-8.7496,-8.7488,-8.7502,-8.7503,-8.7524,-8.7508,-8.7468,-8.7466,-8.7465,-8.7463,0,-8.7138,-8.7121,-8.7255,-8.7272,-8.7279,-8.7374,-8.7387,-8.7459,-8.745,-8.7548,-8.7568,-8.7552,-8.763,-8.7604,-8.7687,-8.767,-8.7822,-8.7795,-8.7812,-8.7805,-8.7915,-8.7905,-8.828,-8.8326,-8.7986,-8.799,-8.7992,0,-8.7306,-8.7396,-8.7423,-8.747,-8.749,-8.7568,-8.7611,-8.7573,-8.7621,-8.7664,-8.7731,-8.7803,-8.7859,-8.7986,-8.798,-8.8043,-8.8016,-8.8143,-8.8025,-8.8035,-8.8016,-8.8011,-8.8019,-8.8166,-8.817,-8.8173,-8.8176,0,-8.7606,-8.7593,-8.7659,-8.7723,-8.7777,-8.7824,-8.7865,-8.7908,-8.7872,-8.7928,-8.8008,-8.8051,-8.8136,-8.8208,-8.8264,-8.8276,-8.822,-8.8214,-8.8242,-8.8256,-8.8262,-8.8259,-8.7875,-8.8205,-8.8202,-8.82,-8.8198,-8.8197,-8.7825,-8.7901,-8.7932,-8.8008,-8.8035,-8.8076,-8.8145,-8.8144,-8.8211,-8.8278,-8.8251,-8.8342,-8.837,-8.8441,-8.8461,-8.853,-8.848,-8.8522,-8.8532,-8.8543,-8.8556,-8.8252,-8.854,-8.8539,-8.8538,-8.8537,-8.8537,0,-8.8121,-8.8137,-8.8207,-8.8268,-8.8327,-8.8272,-8.8314,-8.8367,-8.8449,-8.8481,-8.8537,-8.8628,-8.8697,-8.8698,-8.8761,-8.8816,-8.8792,-8.8834,-8.8829,-8.8833,-8.8597,-8.8566,-8.8853,-8.8853,-8.8853,-8.8853,-8.8853,-8.8852,-8.8281,-8.8406,-8.8397,-8.8534,-8.8548,-8.8639,-8.8668,-8.8704,-8.8729,-8.8834,-8.8892,-8.8893,-8.8911,-8.8976,-8.9036,-8.9034,-8.906,-8.9112,-8.9101,-8.8881,-8.8849,-8.8819,-8.8789,-8.9118,-8.9119,-8.9329,-8.9331,-8.9333]}]]